Newport Airport, OR

1:06 PM PDT on April 24, 2017 (GMT -0700)
Newport Municipal

Weather History for KONP - October, 2010

Change the Weather History Date:

Thursday, October 21, 2010

  Actual Average Record
Temperature  
Mean Temperature 56 °F -  
Max Temperature 62 °F 56 °F 69 °F (2003)
Min Temperature 51 °F 45 °F 39 °F (2008)
Degree Days  
Heating Degree Days 8    
Growing Degree Days 6 (Base 50)    
Moisture  
Dew Point 49 °F    
Average Humidity 77    
Maximum Humidity 94    
Minimum Humidity 63    
Precipitation  
Precipitation 0.00 in - - ()
Sea Level Pressure  
Sea Level Pressure 29.94 in    
Wind  
Wind Speed 13 mph (SSW)    
Max Wind Speed 25 mph    
Max Gust Speed 34 mph    
Visibility 9 miles    
Events      
Averages and records for this station are not official NWS values.
T = Trace of Precipitation, MM = Missing Value Source: NWS Daily Summary

Daily Weather History Graph

Daily Weather History Graph

Search for Another Location

Airport or City:

Trip Planner

Search our weather history database for the weather conditions in past years. The results will help you decide how hot, cold, wet, or windy it might be!

Date:

Astronomy

Oct. 21, 2010 Rise Set
Actual Time 7:39 AM PDT 6:21 PM PDT
Civil Twilight 7:09 AM PDT 6:51 PM PDT
Nautical Twilight 6:35 AM PDT 7:25 PM PDT
Astronomical Twilight 6:01 AM PDT 7:58 PM PDT
Moon 5:24 PM PDT (10/21) 6:24 AM PDT (10/21)
Length of Visible Light 11h 41m
Length of Day
10h 42m
Waxing Gibbous, 98% of the Moon is Illuminated
Oct 21
Waxing Gibbous
Oct 22
Full
Oct 30
Last Quarter
Nov 5
New
Nov 13
First Quarter

Hourly Weather History & Observations

Time (PDT) Temp. Dew Point Humidity Pressure Visibility Wind Dir Wind Speed Gust Speed Precip Events Conditions
12:11 AM 51.8 °F 48.2 °F 88% 29.96 in 7.0 mi SSW 10.4 mph - N/A   Overcast
12:31 AM 51.8 °F 48.2 °F 88% 29.95 in 7.0 mi South 9.2 mph - N/A   Overcast
12:51 AM 51.8 °F 48.2 °F 88% 29.95 in 10.0 mi South 5.8 mph - N/A   Overcast
1:11 AM 51.8 °F 48.2 °F 88% 29.95 in 10.0 mi South 5.8 mph - N/A   Overcast
1:31 AM 51.8 °F 48.2 °F 88% 29.95 in 10.0 mi South 6.9 mph - N/A   Overcast
1:51 AM 51.8 °F 48.2 °F 88% 29.95 in 5.0 mi SSW 11.5 mph 17.3 mph N/A   Overcast
2:11 AM 51.8 °F 48.2 °F 88% 29.94 in 4.0 mi SSW 12.7 mph 19.6 mph N/A   Overcast
2:31 AM 51.8 °F 48.2 °F 88% 29.94 in 7.0 mi South 10.4 mph - N/A   Overcast
2:51 AM 51.8 °F 48.2 °F 88% 29.95 in 10.0 mi South 8.1 mph - N/A   Overcast
3:12 AM 51.8 °F 48.2 °F 88% 29.94 in 10.0 mi South 6.9 mph - N/A   Overcast
3:31 AM 51.8 °F 48.2 °F 88% 29.94 in 7.0 mi South 8.1 mph - N/A   Overcast
3:51 AM 51.8 °F 50.0 °F 94% 29.93 in 7.0 mi SSW 13.8 mph 18.4 mph N/A   Overcast
4:11 AM 53.6 °F 50.0 °F 88% 29.93 in 7.0 mi SSW 11.5 mph - N/A   Overcast
4:31 AM 53.6 °F 50.0 °F 88% 29.93 in 10.0 mi South 8.1 mph 19.6 mph N/A   Overcast
4:51 AM 53.6 °F 48.2 °F 82% 29.93 in 10.0 mi South 8.1 mph - N/A   Overcast
5:11 AM 53.6 °F 48.2 °F 82% 29.93 in 10.0 mi South 9.2 mph 18.4 mph N/A   Overcast
5:31 AM 53.6 °F 48.2 °F 82% 29.93 in 10.0 mi South 10.4 mph - N/A   Overcast
5:51 AM 53.6 °F 48.2 °F 82% 29.93 in 10.0 mi SSW 15.0 mph 18.4 mph N/A   Overcast
6:11 AM 53.6 °F 50.0 °F 88% 29.93 in 10.0 mi South 19.6 mph 24.2 mph N/A   Overcast
6:31 AM 55.4 °F 50.0 °F 82% 29.94 in 10.0 mi SSW 15.0 mph 23.0 mph N/A   Overcast
6:51 AM 55.4 °F 48.2 °F 77% 29.94 in 10.0 mi South 15.0 mph 25.3 mph N/A   Overcast
7:12 AM 55.4 °F 48.2 °F 77% 29.94 in 10.0 mi SSW 15.0 mph 21.9 mph N/A   Overcast
7:31 AM 55.4 °F 48.2 °F 77% 29.94 in 10.0 mi South 11.5 mph 20.7 mph N/A   Overcast
7:51 AM 55.4 °F 48.2 °F 77% 29.94 in 7.0 mi SSW 11.5 mph 18.4 mph N/A   Overcast
8:11 AM 55.4 °F 48.2 °F 77% 29.94 in 10.0 mi South 8.1 mph - N/A   Overcast
8:31 AM 55.4 °F 48.2 °F 77% 29.95 in 7.0 mi South 9.2 mph 17.3 mph N/A   Overcast
8:51 AM 55.4 °F 50.0 °F 82% 29.95 in 10.0 mi South 10.4 mph - N/A   Mostly Cloudy
9:11 AM 55.4 °F 50.0 °F 82% 29.95 in 10.0 mi SSW 15.0 mph 18.4 mph N/A   Mostly Cloudy
9:33 AM 57.2 °F 48.2 °F 72% 29.95 in 10.0 mi SSW 18.4 mph 23.0 mph N/A   Overcast
9:52 AM 57.2 °F 48.2 °F 72% 29.95 in 10.0 mi South 18.4 mph 27.6 mph N/A   Overcast
10:12 AM 57.2 °F 48.2 °F 72% 29.94 in 10.0 mi SSW 19.6 mph 27.6 mph N/A   Scattered Clouds
10:31 AM 60.8 °F 48.2 °F 63% 29.94 in 10.0 mi SSW 20.7 mph 29.9 mph N/A   Clear
10:53 AM 59.0 °F 48.2 °F 67% 29.95 in 10.0 mi SSW 25.3 mph 31.1 mph N/A   Scattered Clouds
11:13 AM 60.8 °F 50.0 °F 68% 29.95 in 10.0 mi South 20.7 mph 29.9 mph N/A   Scattered Clouds
11:31 AM 60.8 °F 48.2 °F 63% 29.94 in 10.0 mi SSW 21.9 mph 33.4 mph N/A   Clear
11:51 AM 62.6 °F 50.0 °F 63% 29.94 in 10.0 mi SSW 23.0 mph 29.9 mph N/A   Clear
12:11 PM 62.6 °F 50.0 °F 63% 29.93 in 10.0 mi SSW 24.2 mph 34.5 mph N/A   Clear
12:31 PM 62.6 °F 50.0 °F 63% 29.93 in 10.0 mi SSW 23.0 mph 33.4 mph N/A   Clear
12:51 PM 62.6 °F 50.0 °F 63% 29.93 in 10.0 mi SSW 19.6 mph 28.8 mph N/A   Clear
1:11 PM 62.6 °F 50.0 °F 63% 29.93 in 10.0 mi SSW 19.6 mph 25.3 mph N/A   Scattered Clouds
1:33 PM 60.8 °F 51.8 °F 72% 29.93 in 7.0 mi SW 16.1 mph 20.7 mph N/A   Mostly Cloudy
1:51 PM 60.8 °F 51.8 °F 72% 29.93 in 10.0 mi SSW 17.3 mph 23.0 mph N/A   Overcast
2:11 PM 60.8 °F 51.8 °F 72% 29.93 in 7.0 mi SSW 17.3 mph 23.0 mph N/A   Overcast
2:51 PM 60.8 °F 50.0 °F 68% 29.93 in 10.0 mi SSW 18.4 mph 28.8 mph N/A   Mostly Cloudy
3:11 PM 60.8 °F 51.8 °F 72% 29.93 in 10.0 mi SSW 23.0 mph 28.8 mph N/A   Overcast
3:31 PM 60.8 °F 51.8 °F 72% 29.93 in 10.0 mi SSW 17.3 mph 31.1 mph N/A   Overcast
3:51 PM 59.0 °F 51.8 °F 77% 29.93 in 10.0 mi SSW 19.6 mph 27.6 mph N/A   Overcast
4:11 PM 60.8 °F 51.8 °F 72% 29.93 in 10.0 mi SSW 19.6 mph 31.1 mph N/A   Overcast
4:31 PM 60.8 °F 51.8 °F 72% 29.93 in 10.0 mi SSW 19.6 mph 31.1 mph N/A   Overcast
4:51 PM 60.8 °F 51.8 °F 72% 29.92 in 10.0 mi South 24.2 mph 34.5 mph N/A   Overcast
5:11 PM 59.0 °F 51.8 °F 77% 29.92 in 10.0 mi South 19.6 mph 32.2 mph N/A   Overcast
5:32 PM 59.0 °F 51.8 °F 77% 29.92 in 10.0 mi SSW 21.9 mph 33.4 mph N/A   Overcast
5:51 PM 57.2 °F 51.8 °F 82% 29.93 in 4.0 mi SSW 21.9 mph 28.8 mph N/A   Drizzle
6:11 PM 55.4 °F 53.6 °F 94% 29.94 in 2.0 mi SSW 16.1 mph 26.5 mph N/A Rain Light Rain
6:31 PM 55.4 °F 53.6 °F 94% 29.94 in 2.5 mi SSW 18.4 mph 25.3 mph N/A Rain Light Rain
6:51 PM 53.6 °F 53.6 °F 100% 29.95 in 3.0 mi SSW 18.4 mph 28.8 mph 0.01 in Rain Light Rain
7:11 PM 53.6 °F 53.6 °F 100% 29.94 in 3.0 mi SSW 16.1 mph 23.0 mph N/A Rain Light Rain
7:31 PM 53.6 °F 53.6 °F 100% 29.94 in 3.0 mi SSW 17.3 mph 28.8 mph 0.02 in Rain Light Rain
7:51 PM 53.6 °F 53.6 °F 100% 29.94 in 3.0 mi SSW 15.0 mph 28.8 mph 0.05 in Rain Light Rain
8:11 PM 53.6 °F 53.6 °F 100% 29.94 in 4.0 mi SSW 18.4 mph 25.3 mph 0.02 in Rain Light Rain
8:31 PM 53.6 °F 53.6 °F 100% 29.94 in 3.0 mi SSW 23.0 mph 34.5 mph 0.04 in Rain Light Rain
8:51 PM 53.6 °F 53.6 °F 100% 29.94 in 3.0 mi SSW 25.3 mph 36.8 mph 0.05 in Rain Light Rain
9:31 PM 53.6 °F 53.6 °F 100% 29.94 in 5.0 mi SSW 17.3 mph 32.2 mph N/A   Light Drizzle
9:51 PM 53.6 °F 53.6 °F 100% 29.95 in 5.0 mi South 17.3 mph 28.8 mph N/A   Light Drizzle
10:13 PM 53.6 °F 53.6 °F 100% 29.95 in 10.0 mi SSW 18.4 mph 31.1 mph N/A   Overcast
10:31 PM 53.6 °F 53.6 °F 100% 29.96 in 7.0 mi SSW 17.3 mph 26.5 mph N/A Rain Light Rain
10:51 PM 53.6 °F 53.6 °F 100% 29.96 in 10.0 mi SSW 17.3 mph 24.2 mph N/A   Overcast
11:11 PM 53.6 °F 51.8 °F 94% 29.96 in 7.0 mi SSW 18.4 mph 23.0 mph N/A   Overcast
11:31 PM 53.6 °F 51.8 °F 94% 29.97 in 7.0 mi South 16.1 mph 20.7 mph N/A   Overcast
11:51 PM 53.6 °F 51.8 °F 94% 29.97 in 7.0 mi South 13.8 mph 17.3 mph N/A   Overcast